Tracking 29892 objects as of 21-Nov-2024
HD Live streaming from Space Station
objects crossing your sky now

LEMUR 2 MONSON

Track LEMUR 2 MONSON now!
10-day predictions
LEMUR 2 MONSON is classified as:


NORAD ID: 42839
Int'l Code: 2017-042Q
Perigee: 540.8 km
Apogee: 553.6 km
Inclination: 97.4 °
Period: 95.4 minutes
Semi major axis: 6918 km
RCS: Unknown
Launch date: July 14, 2017
Source: United States (US)
Launch site: TYURATAM MISSILE AND SPACE COMPLEX (TTMTR)
Your satellite tracking list
Your tracking list is empty




NASA's NSSDC Master Catalog

Two Line Element Set (TLE):
1 42839U 17042Q   24324.47883134  .00012535  00000-0  80088-3 0  9996
2 42839  97.3907 146.4488 0009214 202.6022 157.4802 15.08739102400959
Source of the keplerian elements: AFSPC